This demonstration page uses our WeatherBlox Daily Observations layout. Learn more.

Left ArrowRight Arrow

44.89941, -97.11507

Hourly Observations for November 1, 2019

Temp ( °F °C ) Dew Point ( °F °C ) Humidity (%) Winds ( mph kmh ) Pressure ( in mb ) Visibility ( mi km ) Precip ( " mm )
12:15 am 00:15 Cloudy with Light Snow 34 1.1 30 -1.1 85 85 WNW 9 15 30.00 1016 4 6 0.00 0.00
12:28 am 00:28 Cloudy with Light Snow 33 0.6 31 -0.6 92 92 WNW 7 11 30.00 1016 4 6 0.00 0.00
12:53 am 00:53 Cloudy with Light Snow 33 0.6 32 0 96 96 W 7 11 29.98 1015 4 6 0.00 0.00
1:53 am 01:53 Cloudy with Light Snow 33 0.6 32 0 96 96 WSW 8 13 29.98 1015 8 13 0.00 0.00
2:01 am 02:01 Cloudy with Light Snow 33 0.6 32 0 96 96 WSW 8 13 30.00 1016 9 14 0.00 0.00
2:53 am 02:53 Cloudy 33 0.6 32 0 96 96 WSW 7 11 29.98 1015 10 16 0.00 0.00
3:26 am 03:26 Cloudy 33 0.6 32 0 96 96 WSW 9 15 30.01 1016 10 16 0.00 0.00
3:38 am 03:38 Cloudy 33 0.6 32 0 96 96 W 8 13 30.01 1016 10 16 0.00 0.00
3:53 am 03:53 Cloudy 33 0.6 32 0 96 96 W 9 15 30.00 1016 10 16 0.00 0.00
4:53 am 04:53 Cloudy 34 1.1 33 0.6 97 97 WNW 10 17 30.00 1016 10 16 0.00 0.00
5:53 am 05:53 Cloudy 35 1.7 33 0.6 93 93 WNW 8 13 30.03 1017 10 16 0.00 0.00
6:53 am 06:53 Cloudy 35 1.7 33 0.6 93 93 W 8 13 30.04 1017 10 16 0.00 0.00
7:31 am 07:31 Cloudy 35 1.7 32 0 89 89 W 8 13 30.07 1018 10 16 0.00 0.00
7:53 am 07:53 Cloudy 35 1.7 32 0 89 89 W 8 13 30.05 1018 10 16 0.00 0.00
8:45 am 08:45 Cloudy 35 1.7 32 0 89 89 W 10 17 30.09 1019 10 16 0.00 0.00
8:53 am 08:53 Cloudy 35 1.7 32 0 89 89 W 10 17 30.07 1018 10 16 0.00 0.00
9:41 am 09:41 Cloudy 36 2.2 33 0.6 89 89 WNW 10 17 30.10 1019 10 16 0.00 0.00
9:53 am 09:53 Cloudy 36 2.2 33 0.6 89 89 W 13 20 30.08 1019 10 16 0.00 0.00
10:09 am 10:09 Cloudy 37 2.8 33 0.6 86 86 W 10 17 30.10 1019 10 16 0.00 0.00
10:19 am 10:19 Cloudy 37 2.8 33 0.6 86 86 W 9 15 30.10 1019 10 16 0.00 0.00
10:53 am 10:53 Cloudy 38 3.3 34 1.1 86 86 W 10 17 30.09 1019 10 16 0.00 0.00
11:23 am 11:23 Cloudy 38 3.3 34 1.1 86 86 WNW 10 17 30.12 1020 10 16 0.00 0.00
11:53 am 11:53 Cloudy 38 3.3 34 1.1 86 86 W 15 24 30.11 1020 10 16 0.00 0.00
12:28 pm 12:28 Cloudy 39 3.9 33 0.6 79 79 WNW 13 20 30.12 1020 10 16 0.00 0.00
12:49 pm 12:49 Cloudy 41 5 34 1 76 76 WNW 15 24 30.10 1019 10 16 0.00 0.00
12:53 pm 12:53 Cloudy 41 5 33 0.6 73 73 WNW 14 22 30.10 1019 10 16 0.00 0.00
1:01 pm 13:01 Mostly Cloudy 41 5 33 0.6 73 73 WNW 16 26 30.09 1019 10 16 0.00 0.00
1:20 pm 13:20 Mostly Cloudy 41 5 32 0 70 70 WNW 15 24 30.09 1019 10 16 0.00 0.00
1:27 pm 13:27 Mostly Cloudy 41 5 32 0 70 70 WNW 17 28 30.09 1019 10 16 0.00 0.00
1:53 pm 13:53 Cloudy 40 4.4 31 -0.6 70 70 WNW 15 24 30.09 1019 10 16 0.00 0.00
2:53 pm 14:53 Cloudy 40 4.4 32 0 73 73 WNW 16 26 30.10 1019 10 16 0.00 0.00
3:53 pm 15:53 Cloudy 38 3.3 31 -0.6 76 76 NW 20 31 30.11 1020 10 16 0.00 0.00
4:36 pm 16:36 Cloudy 38 3.3 30 -1.1 73 73 WNW 24 39 30.14 1021 10 16 0.00 0.00
4:53 pm 16:53 Cloudy with Light Snow 36 2.2 31 -0.6 82 82 WNW 14 22 30.13 1020 8 13 0.00 0.00
5:40 pm 17:40 Cloudy 36 2.2 30 -1.1 79 79 NW 23 37 30.17 1022 10 16 0.00 0.00
5:53 pm 17:53 Mostly Cloudy 34 1.1 28 -2.2 79 79 NW 21 33 30.16 1021 10 16 0.00 0.00
6:53 pm 18:53 Partly Cloudy 33 0.6 28 -2.2 82 82 NW 10 17 30.18 1022 10 16 0.00 0.00
7:53 pm 19:53 Cloudy 34 1.1 29 -1.7 82 82 W 7 11 30.19 1022 10 16 0.00 0.00
8:53 pm 20:53 Cloudy 35 1.7 27 -2.8 72 72 WNW 14 22 30.17 1022 9 14 0.00 0.00
9:53 pm 21:53 Cloudy 35 1.7 28 -2.2 76 76 W 15 24 30.17 1022 10 16 0.00 0.00
10:13 pm 22:13 Cloudy with Light Snow 35 1.7 29 -1.7 78 78 WNW 13 20 30.19 1022 9 14 0.00 0.00
10:29 pm 22:29 Cloudy 35 1.7 28 -2.2 76 76 WNW 18 30 30.19 1022 10 16 0.00 0.00
10:53 pm 22:53 Cloudy 35 1.7 28 -2.2 76 76 WNW 15 24 30.17 1022 10 16 0.00 0.00
11:45 pm 23:45 Cloudy with Light Snow 34 1.1 29 -1.7 82 82 WNW 15 24 30.19 1022 8 13 0.00 0.00
11:53 pm 23:53 Cloudy 34 1.1 29 -1.7 82 82 W 12 19 30.17 1022 9 14 0.00 0.00

Powered by AerisWeather